Tracking 29892 objects as of 21-Nov-2024
HD Live streaming from Space Station
objects crossing your sky now

NOAA 16 DEB

Track NOAA 16 DEB now!
10-day predictions


NORAD ID: 41495
Int'l Code: 2000-055LT
Perigee: 829.6 km
Apogee: 886.9 km
Inclination: 98.7 °
Period: 102.0 minutes
Semi major axis: 7229 km
RCS: Unknown
Launch date: September 21, 2000
Source: United States (US)
Launch site: AIR FORCE WESTERN TEST RANGE (AFWTR)

Note: This is SATELLITE DEBRIS
Your satellite tracking list
Your tracking list is empty




NASA's NSSDC Master Catalog

Two Line Element Set (TLE):
1 41495U 00055LT  24325.28274768  .00004282  00000-0  23263-2 0  9997
2 41495  98.6878 337.5254 0039647  85.1204 275.4493 14.12412352446574
Source of the keplerian elements: AFSPC